[[{"header":{"parameterUnit":"m.s-1","parameterCategory":1,"la1":30.2991,"la2":30.254,"lo1":-89.0895,"lo2":-89.0444,"dy":0.0017,"dx":0.0017,"nx":28,"ny":28,"refTime":"2025-11-08T03:00:00:Z","depth":0,"parameterNumber":2,"parameterNumberName":"U-component_of_WINDS"},"data":[0,0,0,0,0,0,0,0,0,0,0,0,0,0,0,0,0,0,0,0,0,0,0,0,0,0,0,0,0,0,0,0,0,0,0,0,0,0,0,0,0,0,0,0,0,0,0,0,0,0,0,0,0,0,0,0,0,0,1.6165,1.6165,0,1.6189,1.6189,1.619,1.613,1.6128,1.6126,1.6125,1.6149,1.6151,1.6154,0,0,0,0,0,0,0,0,0,0,0,0,0,1.6069,1.6071,1.6165,1.6165,1.6166,1.6189,1.6189,1.619,1.6131,1.6128,1.6126,1.6124,1.6148,1.6151,1.6154,0,0,0,0,0,0,0,0,0,0,0,0,0,1.6103,1.6071,1.6165,1.6139,1.6137,1.6189,1.6189,1.619,1.6131,1.6128,1.6125,1.6123,1.6147,1.6151,1.6154,1.6233,0,0,1.6165,1.6167,0,0,0,0,0,0,0,0,1.6101,1.6107,1.6142,1.6141,1.6139,1.6154,1.6164,1.6204,1.6132,1.6133,1.6125,1.6121,1.6153,1.6156,1.6166,1.6234,1.6235,1.6166,1.6168,1.6169,1.617,0,0,0,0,0,0,0,1.6099,1.6106,1.6174,1.6143,1.6141,1.6126,1.6128,1.6172,1.6158,1.6133,1.6129,1.6132,1.6151,1.6163,1.6167,1.6235,1.6165,1.6169,1.6171,1.6172,1.6371,1.6374,0,0,0,0,0,0,1.61,1.6104,1.6174,1.6175,1.6113,1.613,1.6132,1.6152,1.6158,1.6156,1.6135,1.6129,1.6158,1.6162,1.6167,1.6261,1.6169,1.6173,1.6175,1.6368,1.6371,1.6375,0,0,0,0,0,0,1.6098,1.6107,1.6173,1.6139,1.6146,1.6135,1.6157,1.6154,1.6165,1.6159,1.6157,1.6149,1.6156,1.6162,1.6217,1.6261,1.6174,1.6177,1.6364,1.6369,1.6373,1.6449,0,0,0,0,0,0,1.6096,1.6106,1.6136,1.614,1.6148,1.6223,1.616,1.6156,1.6172,1.6165,1.6172,1.6171,1.6155,1.6212,1.6221,1.6265,1.618,1.636,1.6366,1.6372,1.6443,1.6456,1.6467,0,0,0,0,0,1.6092,1.6156,1.6138,1.6146,1.6184,1.6225,1.623,1.621,1.6176,1.6206,1.6202,1.617,1.6255,1.6219,1.6228,1.6273,1.6357,1.6364,1.6371,1.6437,1.6453,1.6467,0,0,0,0,0,0,1.6156,1.6155,1.6136,1.6202,1.6214,1.6215,1.6252,1.6227,1.625,1.6242,1.6217,1.6219,1.628,1.6281,1.6241,1.6351,1.63,1.6309,1.6347,1.6362,1.6374,1.6373,1.6183,0,0,0,0,0,1.6178,1.6212,1.6209,1.6267,1.6275,1.6263,1.6279,1.6264,1.6275,1.628,1.628,1.6293,1.6322,1.6342,1.6369,1.6442,1.6444,1.6478,1.649,1.65,1.6509,1.6551,1.6566,1.6398,1.6398,1.6398,0,0,1.6224,1.6227,1.625,1.6281,1.6288,1.6324,1.6267,1.6307,1.6333,1.6286,1.6339,1.634,1.6352,1.6418,1.6446,1.6421,1.6556,1.6509,1.6518,1.6521,1.6559,1.6575,1.659,1.6403,1.6402,1.6401,0,0,1.6325,1.633,1.6381,1.639,1.6403,1.6395,1.6407,1.6413,1.6412,1.6464,1.643,1.6461,1.6512,1.6523,1.6536,1.6644,1.6617,1.6653,1.6717,1.6758,1.6771,1.6783,1.6824,1.6838,1.6661,1.6662,1.6662,0,1.638,1.6432,1.641,1.6453,1.6468,1.6428,1.648,1.649,1.6511,1.6523,1.6494,1.6559,1.6564,1.6633,1.6659,1.667,1.6684,1.6652,1.6771,1.6783,1.6793,1.6832,1.6847,1.6666,1.6665,1.6665,1.6665,0,1.65,1.6537,1.6576,1.6599,1.6618,1.6665,1.6651,1.6674,1.6657,1.6652,1.6708,1.6713,1.6741,1.6756,1.6739,1.6823,1.6807,1.6775,1.6724,1.6814,1.685,1.6864,1.6672,1.6671,1.6669,1.6668,0,0,1.6641,1.6653,1.6668,1.6679,1.6691,1.6719,1.6765,1.6793,1.6814,1.683,1.6869,1.6914,1.6885,1.6899,1.6883,1.6919,1.7007,1.6883,1.6883,1.6907,1.7103,1.7128,1.7145,1.6989,1.6992,1.6994,1.7103,0,1.6743,1.6822,1.6805,1.6884,1.6919,1.6882,1.6922,1.6935,1.6932,1.6961,1.6958,1.6991,1.6949,1.6958,1.6992,1.6989,1.7046,1.6981,1.7026,1.7028,1.7026,1.7164,1.719,1.7292,1.7116,1.7118,1.712,0,1.6872,1.6895,1.6977,1.6986,1.7,1.7037,1.7062,1.7091,1.7105,1.71,1.7117,1.7095,1.7142,1.709,1.7155,1.7111,1.7128,1.713,1.7134,1.7138,1.708,1.7174,1.7324,1.7341,1.7142,1.714,1.7138,0,1.6969,1.702,1.7077,1.7087,1.7098,1.7125,1.7131,1.7142,1.7161,1.7184,1.7196,1.7223,1.7239,1.7261,1.7247,1.721,1.7315,1.7261,1.7314,1.7315,1.7338,1.7337,1.7496,1.7347,1.7347,1.7347,1.7346,0,1.7086,1.7138,1.7121,1.7156,1.7214,1.7194,1.7252,1.7254,1.7265,1.73,1.7269,1.7303,1.7282,1.7314,1.7304,1.736,1.7367,1.7365,1.7362,1.7369,1.737,1.7381,1.7374,1.7351,1.735,1.7349,1.7348,0,1.7204,1.7195,1.7255,1.7261,1.7264,1.7307,1.7313,1.7346,1.7341,1.7386,1.7396,1.7389,1.7426,1.7414,1.7453,1.7446,1.7519,1.7505,1.7514,1.7512,1.7566,1.7561,1.7738,1.7761,1.7596,1.7598,1.7599,0,1.728,1.7319,1.7331,1.7353,1.7361,1.7396,1.7416,1.7399,1.742,1.7441,1.7472,1.7506,1.7533,1.7593,1.7592,1.7622,1.7611,1.7671,1.7615,1.7622,1.7614,1.7612,1.7617,1.7682,1.7684,1.7685,1.7687,0,1.7415,1.7409,1.7439,1.7468,1.7493,1.7515,1.7534,1.7554,1.7537,1.7564,1.7602,1.7622,1.7664,1.7699,1.7727,1.7733,1.7708,1.7704,1.7718,1.7726,1.7731,1.7731,1.7546,1.77,1.7699,1.7698,1.7697,1.7697,1.7515,1.755,1.7565,1.7599,1.7612,1.7632,1.7664,1.7664,1.7696,1.7728,1.7716,1.776,1.7775,1.781,1.782,1.7855,1.7832,1.7852,1.7857,1.7863,1.7871,1.7724,1.786,1.7859,1.7859,1.7859,1.7858,0,1.7651,1.7659,1.7691,1.772,1.7748,1.7723,1.7743,1.7768,1.7808,1.7824,1.7851,1.7896,1.7931,1.7933,1.7965,1.7993,1.7982,1.8002,1.8,1.8003,1.7888,1.7874,1.801,1.801,1.801,1.801,1.801,1.801,1.7725,1.7783,1.7779,1.7844,1.7851,1.7895,1.7909,1.7927,1.794,1.7992,1.8021,1.8022,1.8034,1.8067,1.8098,1.8098,1.8112,1.8137,1.8132,1.8026,1.8011,1.7996,1.7983,1.8139,1.814,1.8244,1.8245,1.8246]},{"header":{"parameterUnit":"m.s-1","parameterCategory":1,"la1":30.2991,"la2":30.254,"lo1":-89.0895,"lo2":-89.0444,"dy":0.0017,"dx":0.0017,"nx":28,"ny":28,"refTime":"2025-11-08T03:00:00:Z","depth":0,"parameterNumber":3,"parameterNumberName":"V-component_of_WINDS"},"data":[0,0,0,0,0,0,0,0,0,0,0,0,0,0,0,0,0,0,0,0,0,0,0,0,0,0,0,0,0,0,0,0,0,0,0,0,0,0,0,0,0,0,0,0,0,0,0,0,0,0,0,0,0,0,0,0,0,0,2.0764,2.0765,0,2.0904,2.0905,2.0907,2.0941,2.094,2.0939,2.0938,2.108,2.1085,2.109,0,0,0,0,0,0,0,0,0,0,0,0,0,2.0524,2.0528,2.0763,2.0765,2.0767,2.0904,2.0905,2.0907,2.0941,2.094,2.0939,2.0938,2.1079,2.1084,2.109,0,0,0,0,0,0,0,0,0,0,0,0,0,2.0642,2.0529,2.0763,2.08,2.0805,2.0903,2.0906,2.0908,2.0941,2.094,2.0938,2.0937,2.1077,2.1084,2.1091,2.1162,0,0,2.1112,2.1115,0,0,0,0,0,0,0,0,2.0635,2.0651,2.0793,2.0798,2.0803,2.0903,2.0873,2.0993,2.0942,2.0889,2.0938,2.0936,2.1023,2.1034,2.1063,2.1168,2.1175,2.1113,2.1117,2.112,2.1122,0,0,0,0,0,0,0,2.0627,2.0645,2.0819,2.0795,2.0801,2.0809,2.0825,2.0896,2.0962,2.0894,2.0897,2.0913,2.1025,2.1056,2.1067,2.1177,2.1112,2.1119,2.1123,2.1126,2.1347,2.1349,0,0,0,0,0,0,2.0613,2.0638,2.0815,2.0823,2.0714,2.0815,2.0832,2.0873,2.0961,2.0974,2.0914,2.0914,2.1045,2.1059,2.1072,2.1162,2.112,2.1126,2.113,2.1346,2.1348,2.1349,0,0,0,0,0,0,2.0607,2.0628,2.0809,2.0732,2.0755,2.0821,2.0866,2.0876,2.0908,2.0977,2.0988,2.0934,2.1045,2.1062,2.1139,2.1167,2.113,2.1136,2.1344,2.1346,2.1349,2.1341,0,0,0,0,0,0,2.06,2.0626,2.0654,2.0732,2.0759,2.0874,2.0868,2.088,2.092,2.0921,2.0998,2.101,2.1045,2.1129,2.1146,2.1176,2.1141,2.1341,2.1345,2.1348,2.1339,2.1343,2.1346,0,0,0,0,0,2.0592,2.0646,2.0655,2.0676,2.0796,2.0876,2.0891,2.0931,2.0922,2.095,2.0995,2.1007,2.1161,2.1136,2.1156,2.1189,2.134,2.1344,2.1347,2.1337,2.1342,2.1346,0,0,0,0,0,0,2.057,2.0657,2.0668,2.0749,2.0805,2.0881,2.0919,2.0935,2.0994,2.0993,2.1038,2.1056,2.113,2.1167,2.1138,2.1262,2.125,2.1258,2.1236,2.1241,2.1244,2.1234,2.1147,0,0,0,0,0,2.0574,2.0632,2.0705,2.077,2.0797,2.0853,2.0889,2.0915,2.0974,2.0998,2.1048,2.1105,2.1166,2.1205,2.1265,2.1344,2.1362,2.1376,2.1379,2.1382,2.1389,2.1434,2.1441,2.1362,2.1362,2.1362,0,0,2.0584,2.0639,2.0673,2.0767,2.0813,2.0872,2.0873,2.0935,2.098,2.1007,2.1084,2.1122,2.1188,2.1267,2.1304,2.13,2.1414,2.1387,2.1388,2.1394,2.1438,2.1446,2.1453,2.1365,2.1364,2.1364,0,0,2.0633,2.068,2.074,2.0786,2.0855,2.0892,2.0906,2.098,2.1007,2.1084,2.1107,2.1159,2.1264,2.131,2.1347,2.1413,2.1427,2.1431,2.145,2.1494,2.15,2.1506,2.153,2.1538,2.1437,2.1437,2.1437,0,2.0637,2.0727,2.0768,2.083,2.087,2.0898,2.0959,2.1001,2.1087,2.1114,2.1108,2.1239,2.1286,2.1376,2.1392,2.1421,2.1438,2.1423,2.1496,2.1502,2.1508,2.1532,2.1541,2.1437,2.1437,2.1437,2.1437,0,2.0729,2.0791,2.083,2.0913,2.0958,2.1018,2.1068,2.1108,2.1129,2.1166,2.1245,2.1301,2.1373,2.1396,2.1417,2.149,2.1485,2.1487,2.1476,2.1515,2.1538,2.1547,2.1437,2.1437,2.1437,2.1437,0,0,2.0769,2.0873,2.0887,2.0925,2.1003,2.1052,2.1113,2.1184,2.1219,2.1276,2.1329,2.1416,2.1418,2.1461,2.1487,2.1525,2.1574,2.1522,2.1524,2.1531,2.1658,2.1657,2.1667,2.1583,2.1585,2.1587,2.1653,0,2.0829,2.094,2.0978,2.1071,2.1129,2.1156,2.1209,2.1263,2.1299,2.1353,2.1393,2.1454,2.1452,2.1478,2.1516,2.156,2.16,2.1555,2.1633,2.1636,2.1618,2.1679,2.1678,2.1738,2.1662,2.1663,2.1664,0,2.0913,2.0973,2.1071,2.1143,2.1169,2.1216,2.1284,2.1336,2.1397,2.142,2.1467,2.1491,2.1556,2.154,2.163,2.1599,2.1633,2.1659,2.1662,2.1672,2.1653,2.1691,2.1758,2.1767,2.1679,2.1678,2.1677,0,2.0934,2.1038,2.1111,2.1142,2.1227,2.126,2.1297,2.1357,2.1397,2.1456,2.1483,2.1548,2.1584,2.1634,2.1675,2.1659,2.1762,2.1749,2.1783,2.1782,2.1805,2.1803,2.1879,2.1824,2.1824,2.1824,2.1824,0,2.0997,2.1057,2.1122,2.1166,2.1234,2.1276,2.1341,2.138,2.1433,2.1485,2.1511,2.156,2.161,2.1665,2.1696,2.1767,2.1783,2.1804,2.1812,2.1802,2.18,2.1826,2.1824,2.1826,2.1826,2.1825,2.1825,0,2.1033,2.1078,2.1159,2.1233,2.1253,2.1299,2.1362,2.1407,2.1443,2.1509,2.1527,2.1585,2.1651,2.1696,2.178,2.1801,2.1878,2.1885,2.1858,2.1862,2.1894,2.1891,2.1991,2.2006,2.194,2.194,2.1941,0,2.1071,2.1117,2.1196,2.1233,2.127,2.133,2.1371,2.1414,2.1456,2.1529,2.1564,2.1632,2.1689,2.1793,2.1842,2.1907,2.1916,2.1946,2.1926,2.1915,2.1918,2.1915,2.1921,2.195,2.1951,2.1951,2.1951,0,2.1134,2.1154,2.1213,2.1279,2.1328,2.1382,2.1437,2.1465,2.1518,2.1563,2.1632,2.1676,2.1762,2.1829,2.1898,2.1936,2.1953,2.1957,2.1969,2.196,2.1943,2.1954,2.1868,2.1955,2.1955,2.1954,2.1954,2.1954,2.1173,2.1216,2.1278,2.1342,2.1387,2.1438,2.1483,2.1526,2.1583,2.1658,2.1679,2.175,2.181,2.1905,2.1943,2.1999,2.1996,2.2013,2.2017,2.2021,2.2022,2.1933,2.2012,2.2011,2.2011,2.2011,2.2011,0,2.1238,2.128,2.1338,2.1414,2.1464,2.1475,2.1536,2.1578,2.164,2.1695,2.175,2.1828,2.1893,2.1947,2.2015,2.2049,2.2058,2.2065,2.2064,2.2073,2.202,2.2004,2.2057,2.2057,2.2057,2.2057,2.2057,2.2057,2.1279,2.1352,2.1379,2.1475,2.1516,2.1586,2.162,2.1666,2.171,2.1796,2.1851,2.1886,2.194,2.2011,2.2072,2.2086,2.211,2.2115,2.2131,2.2081,2.2076,2.2071,2.2057,2.212,2.212,2.218,2.218,2.218]}]]